WetterOnline ( https://www.wetteronline.de )

Wetter aktuell Hainburg

Aktuelles Wetter: Offenbach (119m)

6-stündlich | Neueste Meldungen
Ortszeit Temperatur Wetter
Di, 20.08. 2:00 15.2° C bewölkt
Mo, 19.08. 20:00 20.4° C wolkig
Mo, 19.08. 14:00 24.3° C wolkenlos
Mo, 19.08. 8:00 15.8° C wolkig
Mo, 19.08. 2:00 17.6° C wolkig
So, 18.08. 20:00 19.8° C leichter Regen
So, 18.08. 14:00 27.3° C bewölkt
So, 18.08. 8:00 18.2° C bewölkt
Ortszeit Temperatur Wetter
Di, 20.08. 5:30 12.7° C bewölkt
Di, 20.08. 5:20 12.7° C bewölkt
Di, 20.08. 5:10 12.6° C bewölkt
Di, 20.08. 5:00 12.9° C wolkig
Di, 20.08. 4:50 12.9° C wolkig
Di, 20.08. 4:40 12.9° C wolkig
Di, 20.08. 4:30 13.3° C bewölkt
Di, 20.08. 4:00 13.7° C wolkig
Di, 20.08. 3:30 14.4° C bewölkt
Di, 20.08. 3:00 15.1° C bedeckt
Di, 20.08. 2:30 15.1° C bedeckt
Ortszeit Relative Feuchte Sichtweite
Di, 20.08. 2:00 81% 50 km
Mo, 19.08. 20:00 59% 60 km
Mo, 19.08. 14:00 41% 55 km
Mo, 19.08. 8:00 99% 19 km
Mo, 19.08. 2:00 96% 45 km
So, 18.08. 20:00 93% 16 km
So, 18.08. 14:00 56% 55 km
So, 18.08. 8:00 93% 35 km
Ortszeit Relative Feuchte Sichtweite
Di, 20.08. 5:30 96% 29 km
Di, 20.08. 5:20 96% -
Di, 20.08. 5:10 96% -
Di, 20.08. 5:00 94% 35 km
Di, 20.08. 4:50 94% -
Di, 20.08. 4:40 94% -
Di, 20.08. 4:30 91% 40 km
Di, 20.08. 4:00 86% 45 km
Di, 20.08. 3:30 85% 45 km
Di, 20.08. 3:00 86% 50 km
Di, 20.08. 2:30 83% 45 km
Ortszeit Niederschlagsmenge Niederschlagsart
Di, 20.08. 2:00 0.0 l/m2 in 6 Std. -
Mo, 19.08. 20:00 0.0 l/m2 in 12 Std. -
Mo, 19.08. 14:00 0.0 l/m2 in 6 Std. -
Mo, 19.08. 8:00 0.4 l/m2 in 12 Std. -
Mo, 19.08. 2:00 0.4 l/m2 in 6 Std. Regen
So, 18.08. 20:00 8 l/m2 in 12 Std. Regenschauer
So, 18.08. 14:00 0.0 l/m2 in 6 Std. -
So, 18.08. 8:00 2 l/m2 in 12 Std. Regen
Ortszeit Niederschlagsmenge Niederschlagsart
Di, 20.08. 5:30 0.0 l/m2 in 1 Std. -
Di, 20.08. 5:20 keine Meldung -
Di, 20.08. 5:10 keine Meldung -
Di, 20.08. 5:00 0.0 l/m2 in 1 Std. -
Di, 20.08. 4:50 keine Meldung -
Di, 20.08. 4:40 keine Meldung -
Di, 20.08. 4:30 0.0 l/m2 in 1 Std. -
Di, 20.08. 4:00 0.0 l/m2 in 1 Std. -
Di, 20.08. 3:30 0.0 l/m2 in 1 Std. -
Di, 20.08. 3:00 0.0 l/m2 in 1 Std. -
Di, 20.08. 2:30 0.0 l/m2 in 1 Std. -
Ortszeit Stärke Spitze Richtung
km/h Bft. km/h Grad Sektor
Di, 20.08. 2:00 2 1 6 190° S
Mo, 19.08. 20:00 0 0 25 - -
Mo, 19.08. 14:00 11 2 25 240° SW
Mo, 19.08. 8:00 2 1 15 140° SO
Mo, 19.08. 2:00 6 1 15 250° W
So, 18.08. 20:00 9 2 57 220° SW
So, 18.08. 14:00 14 3 36 210° SW
So, 18.08. 8:00 7 2 25 200° S
Ortszeit Stärke Spitze Richtung
km/h Bft. km/h Grad Sektor
Di, 20.08. 5:30 2 1 6 160° S
Di, 20.08. 5:20 2 1 - 160° S
Di, 20.08. 5:10 2 1 - 150° SO
Di, 20.08. 5:00 2 1 6 180° S
Di, 20.08. 4:50 2 1 - 180° S
Di, 20.08. 4:40 2 1 - 190° S
Di, 20.08. 4:30 2 1 4 140° SO
Di, 20.08. 4:00 2 1 4 90° O
Di, 20.08. 3:30 4 1 4 150° SO
Di, 20.08. 3:00 2 1 4 170° S
Di, 20.08. 2:30 0 0 4 - -
Ortszeit Untergrenze Bedeckung Gattung
total tief tief mittel hoch
Di, 20.08. 2:00 2100 m 7/8 7/8 - - -
Mo, 19.08. 20:00 9000 m 7/8 0/8 - - -
Mo, 19.08. 14:00 - 0/8 0/8 - - -
Mo, 19.08. 8:00 1350 m 6/8 6/8 - - -
Mo, 19.08. 2:00 1050 m 8/8 3/8 - - -
So, 18.08. 20:00 3000 m 8/8 8/8 - - -
So, 18.08. 14:00 1380 m 7/8 7/8 - - -
So, 18.08. 8:00 510 m 8/8 7/8 - - -
Ortszeit Bedeckungsgrad in Achtel und Wolkenuntergrenze
Di, 20.08. 5:30 6(2100m) 8(6900m) 8(7500m)
Di, 20.08. 5:20 6(2100m) 8(6900m) 8(7500m)
Di, 20.08. 5:10 5(2100m) 8(7200m) 8(7500m)
Di, 20.08. 5:00 1(2400m) 8(9000m) 8(10500m)
Di, 20.08. 4:50 1(2400m) 8(9000m) 8(10500m)
Di, 20.08. 4:40 2(2400m) 8(9000m) 8(10500m)
Di, 20.08. 4:30 4(2400m) 8(9000m) 8(10500m)
Di, 20.08. 4:00 3(2100m) 8(7800m) 8(9000m)
Di, 20.08. 3:30 4(1800m) 7(10500m) 8(10500m)
Di, 20.08. 3:00 7(1800m) 8(2400m) 8(7800m)
Di, 20.08. 2:30 8(2100m) 8(7800m) 8(10500m)
Ortszeit Luftdruck NN (hPa) Tendenz (hPa in 3 Std.)
Di, 20.08. 2:00 1021 + 1,4
Mo, 19.08. 20:00 1018 + 0,5
Mo, 19.08. 14:00 1017 + 0,4
Mo, 19.08. 8:00 1016 + 0,8
Mo, 19.08. 2:00 1013 + 1,4
So, 18.08. 20:00 1010 + 2,2
So, 18.08. 14:00 1007 - 0,7
So, 18.08. 8:00 1009 + 0,5
Ortszeit Luftdruck NN (hPa) Tendenz (hPa in 3 Std.)
Di, 20.08. 5:30 1021 + 0,3
Di, 20.08. 5:20 1021 keine Meldung
Di, 20.08. 5:10 1021 keine Meldung
Di, 20.08. 5:00 1021 + 0,1
Di, 20.08. 4:50 1021 keine Meldung
Di, 20.08. 4:40 1021 keine Meldung
Di, 20.08. 4:30 1021 + 0,2
Di, 20.08. 4:00 1021 + 0,3
Di, 20.08. 3:30 1021 + 0,5
Di, 20.08. 3:00 1021 + 0,7
Di, 20.08. 2:30 1021 + 1,2
Ortszeit Schneehöhe (cm)
Di, 20.08. 2:00 -
Mo, 19.08. 20:00 -
Mo, 19.08. 14:00 -
Mo, 19.08. 8:00 -
Mo, 19.08. 2:00 -
So, 18.08. 20:00 -
So, 18.08. 14:00 -
So, 18.08. 8:00 -
Ortszeit Schneehöhe (cm)
Di, 20.08. 5:30 -
Di, 20.08. 5:20 -
Di, 20.08. 5:10 -
Di, 20.08. 5:00 -
Di, 20.08. 4:50 -
Di, 20.08. 4:40 -
Di, 20.08. 4:30 -
Di, 20.08. 4:00 -
Di, 20.08. 3:30 -
Di, 20.08. 3:00 -
Di, 20.08. 2:30 -
Link zu dieser Seite / Seite empfehlen

Das Wetter in ...